Printer-friendly version

IAU Minor Planet Center

Minor Planet Center

MPEC 2002-A12: S/2000 J 6

The following Minor Planet Electronic Circular may be linked-to from your own Web pages, but must not otherwise be redistributed electronically.


Read MPEC 2002-A11 Read MPEC 2002-A13


M.P.E.C. 2002-A12                                Issued 2002 Jan. 4, 03:53 UT

     The Minor Planet Electronic Circulars contain information on unusual
         minor planets and routine data on comets.  They are published
   on behalf of Commission 20 of the International Astronomical Union by the
          Minor Planet Center, Smithsonian Astrophysical Observatory,
                          Cambridge, MA 02138, U.S.A.

             Prepared using the Tamkin Foundation Computer Network

                              MPC@CFA.HARVARD.EDU
          URL http://cfa-www.harvard.edu/iau/mpc.html  ISSN 1523-6714

                                  S/2000 J 6

Observations:
    SK00J060  C2001 12 09.58280 07 06 18.47 +21 54 29.6          22.5 R      568
    SK00J060  C2001 12 09.61794 07 06 17.57 +21 54 31.1                      568
    SK00J060  C2001 12 19.36365 07 01 47.41 +22 02 10.8          22.2 R      568
    SK00J060  C2001 12 19.39663 07 01 46.38 +22 02 12.2          22.4 R      568

Observer details:
568 Mauna Kea.  Observers S. S. Sheppard, D. C. Jewitt, J. Kleyna.  Measurer
    S. S. Sheppard.  3.6-m Canada-France-Hawaii Telescope and 2.2-m
    University of Hawaii reflector + CCD.

Orbital elements:
S/2000 J 6
Epoch 2001 Oct. 18.0 TT = JDT 2452200.5                 MPC
M  76.17851              (2000.0)            P               Q
n   0.48007988     Peri.  145.64053     +0.98877915     +0.08530511
a   0.1590608      Node   149.81367     -0.00150447     -0.81519204
e   0.2963093      Incl.  165.88356     +0.14937716     -0.57287431
P   2.05           H   15.9           P/d   749.88
Residuals in seconds of arc
001123 568  0.4-  0.3+    001127 568  0.0   0.0     001203 568  0.2-  0.2-
001123 568  0.5-  0.4+    001127 568  0.2+  0.0     001205 568  0.3-  0.1-
001123 568  0.4-  0.3+    001128 568  0.2+  0.3-    001205 568  0.3-  0.3-
001125 568  0.1+  0.5+    001128 568  0.2+  0.3-    001205 568  0.0   0.0
001125 568  0.3+  0.2+    001128 568  0.1+  0.3-    001216 568  0.1-  0.1+
001125 568  0.0   0.4+    001128 568  0.4+  0.3-    001216 568  0.2+  0.3+
001125 568  0.1-  0.2+    001128 568  0.2+  0.5-    001217 568  0.1+  0.2+
001125 568  0.4-  0.7+    001129 568  0.5+  0.5-    001217 568  0.1-  0.2+
001125 568  0.3-  0.2+    001129 568  0.1-  0.3-    001227 568  0.0   0.5+
001125 568  0.0   0.4+    001129 568  0.3+  0.5-    001227 568  0.4-  0.2-
001126 568  0.1-  0.1+    001129 568  0.1+  0.4-    011209 568  0.2-  0.1-
001126 568  0.1-  0.0     001201 568  0.3+  0.5-    011209 568  0.1-  0.0
001126 568  0.0   0.0     001201 568  0.3+  0.4-    011219 568  0.2+  0.2+
001126 568  0.3+  0.2+    001203 568  0.1-  0.3-    011219 568  0.0   0.1-
001127 568  0.2+  0.0     001203 568  0.2-  0.0

Ephemeris:
    S/2000 J 6
Date    TT    R. A. (2000) Decl.     Delta     r_J   dR.A. ("/m)  dDecl.m1"/')
2001 12 27    06 57.83   +22 08.6    4.089    0.185  7191+/8.63+  2897-/ 48.3-
2002 01 06    06 52.37   +22 17.3    4.096    0.188  7508+/9.02+  2845-/ 47.4-
2002 01 16    06 47.03   +22 25.6    4.135    0.191  7750+/9.32+  2758-/ 46.0-
2002 01 26    06 42.25   +22 33.1    4.204    0.193  7919+/9.53+  2646-/ 44.1-
2002 02 05    06 38.37   +22 39.3    4.301    0.195  8023+/9.66+  2522-/ 42.0-
2002 02 15    06 35.66   +22 44.5    4.422    0.197  8072+/9.73+  2396-/ 39.9-
2002 02 25    06 34.29   +22 48.4    4.564    0.199  8075+/9.73+  2276-/ 37.9-
2002 03 07    06 34.30   +22 51.2    4.720    0.200  8038+/9.69+  2168-/ 36.1-
2002 03 17    06 35.69   +22 52.7    4.886    0.202  7967+/9.61+  2076-/ 34.6-
2002 03 27    06 38.39   +22 53.0    5.059    0.203  7867+/9.49+  2000-/ 33.3-
2002 04 06    06 42.26   +22 51.9    5.232    0.204  7738+/9.33+  1940-/ 32.3-
2002 04 16    06 47.20   +22 49.1    5.403    0.205  7581+/9.14+  1893-/ 31.5-
2002 04 26    06 53.06   +22 44.5    5.568    0.206  7399+/8.91+  1857-/ 30.9-
2002 05 06    06 59.70   +22 37.8    5.724    0.206  7190+/8.65+  1828-/ 30.5-
2002 05 16    07 07.00   +22 29.0    5.868    0.206  6954+/8.36+  1804-/ 30.1-

Brian G. Marsden             (C) Copyright 2002 MPC           M.P.E.C. 2002-A12

Read MPEC 2002-A11 Read MPEC 2002-A13


Our Web policy. Index to the CBAT/MPC/ICQ pages.


Valid HTML 4.01!